sat.trackr.live / text

‹ back to catalog

STARLINK-3333

NORAD 50805 · 2022-001C

PAYLOAD ACTIVE UNKNOWN

§ Identity

Operator
Country
US
Launch date
2022-01-06
Launch site
AFETR
Launch vehicle
Mass (kg)
RCS (m²)

Purposes: comms

External: N2YO · Heavens-Above · Gunter

§ Orbital elements

Epoch: 2026-09-19T18:43:46.729344Z

Period
94.53 min
Inclination
53.1399°
Eccentricity
0.0002799
Mean motion
15.23404268 rev/d
Perigee alt
493.7 km
Apogee alt
497.5 km
Semi-major
6,873.7 km
B*
8.3120e-4
RAAN
2.3598°
Arg perigee
315.1812°
Mean anomaly
44.8959°
Rev number
25,991

§ Raw data

STARLINK-33331 50805U 22001C   26262.78040196  .00019756  00000+0  83120-3 0  99902 50805  53.1399   2.3598 0002799 315.1812  44.8959 15.23404268259915

JSON: /api/v1/satellites/50805 · /tle

For live sub-satellite position, see the globe view (requires WebGL).

§ Visibility from observer

Set your observer location to see the next 7 days of passes ≥ 10°. The values pass through the URL so the page stays shareable.

No JS? Fill the form by hand. The geolocation button needs JavaScript.